Location: Cluj-Napoca
(46.7712°N, 23.6236°E)
Time: 21:23:16
(UTC+02:00)

XW-2B - Visible Passes

Search period start: 07 December 2021 00:00
Search period end: 17 December 2021 00:00
Orbit: 504 x 522 km, 97.5° (Epoch: 07 December)

Date Brightness Start Highest point End Pass type
(mag) Time Alt. Az. Time Alt. Az. Time Alt. Az.
07 Dec ? 05:47:30 10° NE 05:50:38 24° E 05:53:45 10° SSE visible
07 Dec ? 07:21:19 10° N 07:24:38 28° WNW 07:27:55 10° SW visible
07 Dec ? 18:03:29 10° SSW 18:07:00 39° W 18:10:34 10° NNW visible
08 Dec ? 05:32:25 10° NE 05:34:53 16° E 05:37:21 10° SE visible
08 Dec ? 07:05:29 10° N 07:09:06 42° WNW 07:12:42 10° SW visible
08 Dec ? 17:47:38 10° S 17:51:20 60° W 17:55:05 10° NNW visible
09 Dec ? 05:17:59 10° ENE 05:19:07 11° E 05:20:14 10° ESE visible
09 Dec ? 06:49:44 10° N 06:53:32 64° WNW 06:57:16 10° SSW visible
09 Dec ? 17:31:56 10° SSE 17:35:42 87° ENE 17:39:30 10° NNW visible
10 Dec ? 06:34:05 10° NNE 06:37:55 84° ESE 06:41:43 10° SSW visible
10 Dec ? 17:16:25 10° SSE 17:20:06 57° ENE 17:23:50 10° N visible
10 Dec ? 18:52:56 10° WSW 18:54:29 12° W 18:56:01 10° WNW visible
11 Dec ? 06:18:31 10° NNE 06:22:16 54° E 06:25:59 10° S visible
11 Dec ? 18:36:04 10° SW 18:38:41 18° W 18:41:20 10° NW visible
12 Dec ? 06:03:03 10° NNE 06:06:36 35° E 06:10:05 10° SSE visible
12 Dec ? 18:19:44 10° SSW 18:22:56 26° W 18:26:09 10° NW visible
13 Dec ? 05:47:43 10° NE 05:50:52 24° E 05:53:58 10° SSE visible
13 Dec ? 07:21:33 10° N 07:24:52 28° WNW 07:28:08 10° SW visible
13 Dec ? 18:03:40 10° SSW 18:07:12 39° W 18:10:48 10° NNW visible
14 Dec ? 05:32:38 10° NE 05:35:06 16° E 05:37:33 10° SE visible
14 Dec ? 07:05:42 10° N 07:09:18 41° WNW 07:12:53 10° SW visible
14 Dec ? 17:47:48 10° S 17:51:31 60° W 17:55:17 10° NNW visible
15 Dec ? 05:18:10 10° ENE 05:19:18 11° E 05:20:24 10° ESE visible
15 Dec ? 06:49:55 10° N 06:53:42 64° WNW 06:57:27 10° SSW visible
15 Dec ? 17:32:06 10° SSE 17:35:52 88° ENE 17:39:41 10° NNW visible
16 Dec ? 06:34:15 10° NNE 06:38:04 84° ESE 06:41:52 10° SSW visible
16 Dec ? 17:16:32 10° SSE 17:20:14 57° ENE 17:23:59 10° N visible
16 Dec ? 18:53:02 10° WSW 18:54:36 12° W 18:56:10 10° WNW visible
